Location: Hall+in+Tirol
(47.2830°N, 11.5170°E)
Time: 16:30:58
(UTC+02:00)

Gurwin Techsat 1B - Visible Passes

Search period start: 19 April 2014 00:00
Search period end: 29 April 2014 00:00
Orbit: 812 x 815 km, 98.5° (Epoch: 19 April)

Date Brightness Start Highest point End Pass type
(mag) Time Alt. Az. Time Alt. Az. Time Alt. Az.
19 Apr 10.6 03:21:36 10° NE 03:25:45 23° E 03:29:38 11° SE visible
19 Apr 8.8 05:00:52 10° N 05:06:04 56° WNW 05:10:52 12° SW visible
20 Apr 11.1 02:59:57 10° NE 03:02:50 15° E 03:05:42 10° ESE visible
20 Apr 8.6 04:38:09 10° NNE 04:43:30 84° WNW 04:48:04 14° SSW visible
21 Apr 8.9 04:15:33 10° NNE 04:20:51 64° ESE 04:25:16 15° S visible
22 Apr 9.7 03:53:06 10° NNE 03:58:08 42° E 04:02:28 14° SSE visible
22 Apr 9.5 05:33:21 10° N 05:37:59 31° WNW 05:42:36 10° SW visible
23 Apr 10.3 03:30:51 10° NE 03:35:21 27° E 03:39:40 11° SSE visible
23 Apr 9.0 05:10:27 10° N 05:15:31 46° WNW 05:20:34 10° SW visible
24 Apr 10.9 03:08:55 10° NE 03:12:28 18° E 03:15:59 10° SE visible
24 Apr 8.6 04:47:41 10° N 04:52:59 71° WNW 04:58:06 11° SSW visible
25 Apr 11.2 02:48:02 10° ENE 02:49:30 11° E 02:50:58 10° ESE visible
25 Apr 8.7 04:25:02 10° NNE 04:30:22 78° ESE 04:35:17 12° S visible
26 Apr 9.3 04:02:30 10° NNE 04:07:41 50° E 04:12:29 12° S visible
27 Apr 10.1 03:40:09 10° NNE 03:44:55 33° E 03:49:40 10° SSE visible
27 Apr 9.3 05:20:03 10° N 05:24:57 39° WNW 05:29:50 10° SW visible
28 Apr 10.7 03:18:03 10° NE 03:22:05 22° E 03:26:05 10° SE visible
28 Apr 8.8 04:57:13 10° N 05:02:27 59° WNW 05:07:38 10° SSW visible
